Tracking 32963 objects as of 21-Jan-2026
HD Live streaming from Space Station
objects crossing your sky now

STARLINK-4362

Track STARLINK-4362 now!
10-day predictions
STARLINK-4362 is classified as:


NORAD ID: 53043
Int'l Code: 2022-077A
Perigee: 569.1 km
Apogee: 571.1 km
Inclination: 97.6 °
Period: 95.9 minutes
Semi major axis: 6941 km
RCS: Unknown
Launch date: July 11, 2022
Source: United States (US)
Launch site: AIR FORCE WESTERN TEST RANGE (AFWTR)
Your satellite tracking list
Your tracking list is empty




NASA's NSSDC Master Catalog

Two Line Element Set (TLE):
1 53043U 22077A   26020.78640633  .00001403  00000-0  11374-3 0  9997
2 53043  97.6043 203.3229 0001431  73.7982 286.3399 15.01267198193735
Source of the keplerian elements: AFSPC